STARLINK-35622 (66103 NORAD) Tracking and Keplerian Element Data

This shows tracking and keplerian element data for the satellite.

Feedback or suggestion? Click here.




ElementValue
Catalog66103
NameSTARLINK-35622
Epoch Orbit1075
Epoch Day354.07373834
Epoch Year2025
RAAN113.7815
Inclination53.1609
Eccentricity2.03E-05
Argument of Perigee26.0565
Mean Anonmoly334.0446
Mean Motion15.30214827
Decay Rate0.00021013
L11 66103U 25236T 25354.07373834 .00021013 00000+0 71924-3 0 9990
L22 66103 53.1609 113.7815 0000203 26.0565 334.0446 15.30214827 10757



Live tracking and technical data element details for STARLINK-35622 (NORAD 66103). STARLINK-35622 can be tracked NOW for your location showing map with azimuth and elevation plus other details from your city location.







IsCatalogInMostPopularTable: catalog: 66103, numindb: 8
Update: records affected: 1



GetName: 66103 STARLINK-35622

Hit Count: updated at: Mon, 20 Apr 2026 10:31:20 GMT